Location: Maiden
(35.5760°N, 81.2120°W)
Time: 13:39:32
(UTC-04:00)

CZ-4B DEB - Pass Details

Date: 14 June 2018
Orbit: 460 x 468 km, 97.4° (Epoch: 19 June)

Event Time Altitude Azimuth Distance (km) Brightness Sun altitude
Exits shadow 21:50:52 18° 155° (SSE) 1,207 6.0 -12.3°
Maximum altitude 21:53:18 65° 77° (ENE) 513 4.5 -12.7°
Drops below altitude 10° 21:56:44 10° 355° (N) 1,614 7.9 -13.2°
Sets 21:58:48 0° 352° (N) 2,492 9.0 -13.5°
